Location: Namasale
(1.5000°N, 32.6167°E)
Time: 18:18:40
(UTC+00:00)

Vanguard 1 Rocket - Pass Details

Date: 28 April 2021
Orbit: 652 x 4224 km, 34.3° (Epoch: 09 May)

Event Time Altitude Azimuth Distance (km) Brightness Sun altitude
Rises 15:24:15 0° 329° (NNW) 2,989 10.8 5.9°
Reaches altitude 10° 15:26:36 10° 343° (NNW) 2,186 9.9 5.3°
Maximum altitude 15:30:46 27° 42° (NE) 1,608 8.5 4.3°
Drops below altitude 10° 15:36:41 10° 98° (E) 3,188 9.6 2.9°
Sets 15:40:56 0° 109° (ESE) 4,714 10.3 1.8°
